Location: Munkebjergskolens Observatorium
(55.3864°N, 10.3987°E)
Time: 03:38:01
(UTC+02:00)

QB50P2 - Pass Details

Date: 09 April 2023
Orbit: 581 x 596 km, 98.0° (Epoch: 31 May)

Event Time Altitude Azimuth Distance (km) Brightness Sun altitude
Rises 02:50:15 0° 19° (NNE) 2,832 ? -24.5°
Reaches altitude 10° 02:52:31 10° 26° (NNE) 1,924 ? -24.3°
Maximum altitude 02:56:30 43° 99° (E) 827 ? -24.1°
Enters shadow 02:56:46 43° 110° (ESE) 834 ? -24.1°
